EW6077 Weather Reports


Display with metric or nautical units.
time (UTC)temp
F
wind
direction
speed
MPH
gust
MPH
rain 1hr
in
rain 24hr
in
rain mn
in
humidity
%
barometer
mb
20180625172019 67 111 7.0 0.0 0.00 0.00 0.00 87 1010.4
20180625165020 68 119 6.0 0.0 0.00 0.00 0.00 85 1010.3
20180625163517 68 122 6.0 0.0 0.00 0.00 0.00 85 1010.2
20180625162012 67 103 5.0 0.0 0.00 0.00 0.00 86 1010.4
20180625160511 67 116 5.0 0.0 0.00 0.00 0.00 86 1010.5
20180625155014 67 90 6.0 0.0 0.00 0.00 0.00 85 1010.6
20180625153505 66 116 4.0 0.0 0.00 0.00 0.00 89 1010.7
20180625152007 66 46 1.0 0.0 0.00 0.00 0.00 91 1010.9
20180625150504 66 113 1.0 0.0 0.00 0.00 0.00 91 1011.1
20180625145001 65 93 3.0 0.0 0.00 0.00 0.00 93 1011.0
20180625143455 64 124 4.0 0.0 0.00 0.00 0.00 95 1011.3
20180625141953 64 121 4.0 0.0 0.00 0.00 0.00 97 1011.3
20180625140454 63 107 4.0 0.0 0.00 0.00 0.00 98 1011.3
20180625134949 63 157 5.0 0.0 0.00 0.00 0.00 98 1011.4
20180625133452 63 134 5.0 0.0 0.00 0.00 0.00 98 1011.4
20180625131946 62 132 6.0 0.0 0.00 0.00 0.00 98 1011.5
20180625130446 62 136 6.0 0.0 0.00 0.00 0.00 98 1011.7
20180625124947 62 128 6.0 0.0 0.00 0.00 0.00 98 1011.7
20180625123442 62 108 6.0 0.0 0.00 0.00 0.00 98 1011.6
20180625121940 62 105 6.0 0.0 0.00 0.00 0.00 98 1011.6
20180625120440 62 83 6.0 0.0 0.00 0.00 0.00 98 1011.5
20180625114942 62 103 6.0 0.0 0.00 0.00 0.00 98 1011.5
20180625113436 62 102 6.0 0.0 0.00 0.00 0.00 98 1011.3
20180625111936 62 96 5.0 0.0 0.00 0.00 0.00 98 1011.5
20180625110436 61 96 4.0 0.0 0.00 0.00 0.00 98 1011.5
20180625104934 61 93 4.0 0.0 0.00 0.00 0.00 97 1011.5
20180625103432 61 90 3.0 0.0 0.00 0.00 0.00 97 1011.8
20180625101928 61 91 3.0 0.0 0.00 0.00 0.00 97 1011.9
20180625100429 61 84 3.0 0.0 0.00 0.00 0.00 97 1011.9
20180625094927 61 84 4.0 0.0 0.00 0.00 0.00 97 1011.9
20180625093427 61 91 6.0 0.0 0.00 0.00 0.00 97 1011.8
20180625091926 61 92 6.0 0.0 0.00 0.00 0.00 97 1011.9
20180625090425 60 89 4.0 0.0 0.00 0.00 0.00 97 1012.0
20180625084924 60 86 3.0 0.0 0.00 0.00 0.00 97 1012.2
20180625083420 59 71 2.0 0.0 0.00 0.00 0.00 97 1012.3
20180625081923 59 72 2.0 0.0 0.00 0.00 0.00 97 1012.3
20180625080419 59 78 2.0 0.0 0.00 0.00 0.00 97 1012.3
20180625074917 59 78 3.0 0.0 0.00 0.00 0.00 97 1012.4
20180625073418 59 88 3.0 0.0 0.00 0.00 0.00 97 1012.5
20180625070415 56 49 0.0 0.0 0.00 0.00 0.00 96 1012.5
20180625064913 57 49 0.0 0.0 0.00 0.00 0.00 96 1012.5
20180625063411 60 105 0.0 0.0 0.00 0.00 0.00 97 1012.3
20180625061908 59 105 0.0 0.0 0.00 0.00 0.00 97 1012.6
20180625060406 59 105 0.0 0.0 0.00 0.00 0.00 97 1012.9
20180625054905 59 136 0.0 0.0 0.00 0.00 0.00 96 1013.0
20180625053403 60 151 0.0 0.0 0.00 0.00 0.00 95 1013.0
20180625051903 61 151 0.0 0.0 0.00 0.00 0.00 96 1013.1
20180625050405 60 151 0.0 0.0 0.00 0.00 0.00 96 1013.1
20180625044904 61 151 0.0 0.0 0.00 0.00 0.00 96 1013.2
20180625043401 60 151 0.0 0.0 0.00 0.00 0.00 96 1013.1
20180625041901 59 151 3.0 0.0 0.00 0.00 0.00 93 1013.2
20180625040359 62 152 0.0 0.0 0.00 0.00 0.00 90 1013.1
20180625034900 63 152 1.0 0.0 0.00 0.00 0.00 90 1012.8
20180625033358 64 152 2.0 0.0 0.00 0.00 0.00 89 1012.7
20180625031957 65 152 2.0 0.0 0.00 0.00 0.00 87 1012.9